Location: Zihuatanejo
(17.6330°N, 101.5500°W)
Time: 13:13:08
(UTC-05:00)

OTV 5 (USA 277) - Visible Passes

Search period start: 23 October 2019 00:00
Search period end: 02 November 2019 00:00
Orbit: 310 x 324 km, 54.5° (Epoch: 17 October)

Date Brightness Start Highest point End Pass type
(mag) Time Alt. Az. Time Alt. Az. Time Alt. Az.
23 Oct ? 06:53:29 10° NNW 06:56:09 55° NE 06:58:48 10° SE visible
23 Oct ? 19:56:20 10° SSE 19:58:09 16° ESE 19:58:53 15° E visible
24 Oct ? 07:08:37 12° WNW 07:10:36 25° WSW 07:12:54 10° S visible
24 Oct ? 20:09:53 10° SSW 20:12:34 85° SE 20:14:00 24° NE visible
25 Oct ? 05:52:51 13° ESE 05:52:51 13° ESE 05:53:17 10° ESE visible
25 Oct ? 20:25:04 10° W 20:27:07 19° NW 20:29:01 11° N visible
26 Oct ? 06:08:03 11° SSE 06:08:03 11° SSE 06:08:09 10° SSE visible
28 Oct ? 19:36:12 10° WNW 19:36:31 10° NW 19:36:50 10° NW visible
